Main page
METAR-TAF:

METAR-TAF

Airports :

J6-a, Netherlands

Oil platform

latitude: 53-49-27N, longitude: 2-56-43E, elevation: 34 m

Current weather observation

The report was made 35 minutes ago, at 11:25 UTC
Wind 19 kt from the Southwest
Temperature 10°C
Humidity 93%
Pressure 1009 hPa

METAR: EHJA 201125Z AUTO 22019KT //// // SCT004/// BKN005/// BKN007/// 10/09 Q1009 RE//

Time: 13:00 (12:00 UTC)


TAF: missing

Weather observations and forecasts of more than 4000 airports (METAR and TAF reports).

The available stations are represented by yellow and red dots on the map.

Hover mouse over dot to see the name of the station.

Then click to see weather observations and forecasts.

To change the map : click on the green buttons with a black cross to zoom in, on the green button with a dash to zoom out, or on the green arrows for adjacent maps.


METAR-TAF: